CEB740 RPLL-OERK

Flight info

Callsign CEB740
Flight time N/A
Altitude 34000
Route SIRCA2R SIRCA L628 ARESI/K0891F340 L628 PCA G474 ANINA/N0480F340 G474 VEMKO/N0418F240 G474 OMURO/N0480F340 G474 BKK L301 SADUS/N0479F360 L301 AKTIV/N0475F380 L301 RAGMA N571 MENSA/N0463F340 N571 TUDIS P699 EGTAG/N0468F380 P699 NARMI N112 GETOT Q212 ASNUM
Aircraft A339/H-SADE1E2E3GHIJ3J5M1P2RWXY/LB2D1

Departure

Time N/A
Airport Ninoy Aquino International Airport (RPLL)

Arrival

Time 2026-05-08 07:14
Airport King Khalid International Airport (OERK)
Time Latitude Longitude Altitude Speed Heading
2026-05-08 06:14 25.49792 53.23847 37815 ft 430 kts 280°
2026-05-08 06:14 25.51111 53.17430 37816 ft 430 kts 280°
2026-05-08 06:15 25.52428 53.11000 37819 ft 430 kts 280°
2026-05-08 06:15 25.53746 53.04541 37824 ft 430 kts 280°
2026-05-08 06:16 25.55086 52.98126 37830 ft 430 kts 282°
2026-05-08 06:16 25.56804 52.91946 37838 ft 432 kts 287°
2026-05-08 06:17 25.60460 52.82855 37847 ft 435 kts 294°
2026-05-08 06:17 25.63330 52.76952 37851 ft 436 kts 294°
2026-05-08 06:18 25.66199 52.71075 37853 ft 436 kts 294°
2026-05-08 06:18 25.68598 52.66149 37854 ft 436 kts 294°
2026-05-08 06:19 25.71931 52.59292 37854 ft 436 kts 294°
2026-05-08 06:19 25.74790 52.53404 37854 ft 435 kts 294°
2026-05-08 06:20 25.77614 52.47495 37854 ft 435 kts 293°
2026-05-08 06:20 25.80385 52.41513 37854 ft 435 kts 293°
2026-05-08 06:21 25.83132 52.35581 37854 ft 435 kts 293°
2026-05-08 06:21 25.88467 52.24038 37855 ft 435 kts 293°
2026-05-08 06:22 25.91234 52.18089 37854 ft 435 kts 293°
2026-05-08 06:22 25.93978 52.12164 37854 ft 435 kts 293°
2026-05-08 06:23 25.96728 52.06210 37854 ft 435 kts 293°
2026-05-08 06:23 25.99463 52.00279 37854 ft 435 kts 293°
2026-05-08 06:24 26.02179 51.94380 37854 ft 435 kts 293°
2026-05-08 06:24 26.04922 51.88419 37854 ft 435 kts 293°
2026-05-08 06:25 26.07666 51.82444 37854 ft 435 kts 293°
2026-05-08 06:25 26.10402 51.76480 37854 ft 435 kts 293°
2026-05-08 06:26 26.13134 51.70530 37857 ft 435 kts 293°
2026-05-08 06:26 26.15855 51.64582 37861 ft 432 kts 293°
2026-05-08 06:27 26.18592 51.58639 37864 ft 434 kts 293°
2026-05-08 06:27 26.29350 51.35015 37871 ft 435 kts 292°
2026-05-08 06:28 26.31523 51.28829 37869 ft 429 kts 282°
2026-05-08 06:28 26.32694 51.22366 37868 ft 425 kts 273°
2026-05-08 06:29 26.32869 51.15859 37868 ft 422 kts 265°
2026-05-08 06:29 26.32219 51.09396 37869 ft 421 kts 261°
2026-05-08 06:30 26.31402 51.02960 37868 ft 421 kts 260°
2026-05-08 06:30 26.30582 50.96564 37868 ft 420 kts 260°
2026-05-08 06:31 26.29677 50.90152 37868 ft 419 kts 258°
2026-05-08 06:31 26.28682 50.83800 37868 ft 418 kts 258°
2026-05-08 06:32 26.26944 50.71757 37868 ft 419 kts 262°
2026-05-08 06:32 26.26610 50.65413 37868 ft 421 kts 266°
2026-05-08 06:33 26.26814 50.58900 37868 ft 423 kts 271°
2026-05-08 06:33 26.27535 50.52391 37868 ft 425 kts 275°
2026-05-08 06:34 26.28376 50.45915 37867 ft 423 kts 275°
2026-05-08 06:34 26.29213 50.39449 37868 ft 425 kts 275°
2026-05-08 06:35 26.30050 50.32958 37870 ft 425 kts 274°
2026-05-08 06:35 26.31648 50.21444 37862 ft 424 kts 274°
2026-05-08 06:36 26.32151 50.14919 37855 ft 422 kts 269°
2026-05-08 06:36 26.29809 49.12881 37860 ft 421 kts 265°
2026-05-08 06:37 26.26034 48.62160 37867 ft 417 kts 262°
2026-05-08 06:37 26.25243 48.55817 37766 ft 414 kts 257°
2026-05-08 06:38 26.24647 48.52685 37477 ft 411 kts 255°
2026-05-08 06:38 26.23932 48.49636 37093 ft 408 kts 252°
2026-05-08 06:38 26.23097 48.46648 36613 ft 407 kts 250°
2026-05-08 06:38 26.22136 48.43695 36083 ft 407 kts 248°
2026-05-08 06:39 26.21075 48.40845 35528 ft 407 kts 245°
2026-05-08 06:39 26.19913 48.38020 35000 ft 406 kts 244°
2026-05-08 06:39 26.18734 48.35179 34467 ft 405 kts 245°
2026-05-08 06:39 26.17574 48.32393 33946 ft 405 kts 244°
2026-05-08 06:40 26.16399 48.29567 33404 ft 405 kts 244°
2026-05-08 06:40 26.15218 48.26723 32823 ft 406 kts 243°
2026-05-08 06:40 26.13990 48.23944 32230 ft 406 kts 240°
2026-05-08 06:40 26.12622 48.21211 31615 ft 407 kts 237°
2026-05-08 06:41 26.11118 48.18538 30965 ft 408 kts 234°
2026-05-08 06:41 26.09483 48.15937 30289 ft 410 kts 231°
2026-05-08 06:41 26.07743 48.13454 29586 ft 413 kts 228°
2026-05-08 06:41 26.05866 48.11047 28957 ft 413 kts 225°
2026-05-08 06:42 26.03914 48.08742 28499 ft 410 kts 224°
2026-05-08 06:42 26.01960 48.06452 28025 ft 407 kts 223°
2026-05-08 06:42 26.00029 48.04194 27490 ft 407 kts 223°
2026-05-08 06:42 25.98097 48.01936 26987 ft 406 kts 223°
2026-05-08 06:43 25.96154 47.99669 26437 ft 406 kts 222°
2026-05-08 06:43 25.94222 47.97416 25932 ft 405 kts 222°
2026-05-08 06:43 25.92270 47.95139 25453 ft 403 kts 222°
2026-05-08 06:43 25.90352 47.92905 25000 ft 401 kts 222°
2026-05-08 06:44 25.88463 47.90704 24566 ft 400 kts 222°
2026-05-08 06:44 25.86577 47.88509 24139 ft 398 kts 221°
2026-05-08 06:44 25.84663 47.86285 23705 ft 396 kts 220°
2026-05-08 06:44 25.82635 47.84252 23217 ft 393 kts 215°
2026-05-08 06:45 25.80520 47.82336 22676 ft 395 kts 214°
2026-05-08 06:45 25.78390 47.80433 22114 ft 397 kts 214°
2026-05-08 06:45 25.76262 47.78521 21578 ft 398 kts 214°
2026-05-08 06:45 25.74137 47.76599 21068 ft 399 kts 215°
2026-05-08 06:46 25.72001 47.74657 20572 ft 399 kts 215°
2026-05-08 06:46 25.69869 47.72712 20086 ft 399 kts 215°
2026-05-08 06:46 25.67721 47.70750 19603 ft 399 kts 215°
2026-05-08 06:46 25.65589 47.68800 19135 ft 398 kts 216°
2026-05-08 06:47 25.63493 47.66883 18678 ft 397 kts 216°
2026-05-08 06:47 25.61359 47.64932 18219 ft 397 kts 216°
2026-05-08 06:47 25.59239 47.62993 17769 ft 396 kts 216°
2026-05-08 06:47 25.57150 47.61084 17335 ft 395 kts 216°
2026-05-08 06:48 25.55018 47.59135 16919 ft 393 kts 216°
2026-05-08 06:48 25.52932 47.57229 16511 ft 391 kts 216°
2026-05-08 06:48 25.50852 47.55330 16097 ft 390 kts 217°
2026-05-08 06:48 25.48780 47.53440 15635 ft 390 kts 217°
2026-05-08 06:49 25.46704 47.51547 15183 ft 389 kts 217°
2026-05-08 06:49 25.44603 47.49631 14754 ft 388 kts 217°
2026-05-08 06:49 25.42530 47.47741 14345 ft 386 kts 217°
2026-05-08 06:49 25.40470 47.45864 13945 ft 384 kts 218°
2026-05-08 06:50 25.38417 47.43995 13552 ft 382 kts 218°
2026-05-08 06:50 25.36382 47.42142 13164 ft 380 kts 218°
2026-05-08 06:50 25.34366 47.40308 12783 ft 378 kts 218°
2026-05-08 06:50 25.32334 47.38460 12400 ft 376 kts 218°
2026-05-08 06:51 25.30337 47.36644 12024 ft 374 kts 218°
2026-05-08 06:51 25.28342 47.34831 11612 ft 373 kts 218°
2026-05-08 06:51 25.26342 47.33013 11140 ft 373 kts 218°
2026-05-08 06:51 25.24352 47.31206 10720 ft 372 kts 218°
2026-05-08 06:52 25.22357 47.29395 10342 ft 369 kts 218°
2026-05-08 06:52 25.20425 47.27641 10254 ft 356 kts 218°
2026-05-08 06:52 25.18557 47.25946 10206 ft 344 kts 218°
2026-05-08 06:52 25.16732 47.24291 10149 ft 333 kts 218°
2026-05-08 06:53 25.14992 47.22714 10100 ft 322 kts 218°
2026-05-08 06:53 25.13310 47.21189 10054 ft 311 kts 218°
2026-05-08 06:53 25.11653 47.19690 10014 ft 300 kts 218°
2026-05-08 06:53 25.10065 47.18253 9757 ft 299 kts 218°
2026-05-08 06:54 25.08468 47.16810 9483 ft 297 kts 218°
2026-05-08 06:54 25.07022 47.15503 9304 ft 293 kts 218°
2026-05-08 06:54 25.05463 47.14094 9112 ft 289 kts 218°
2026-05-08 06:54 25.03922 47.12697 8882 ft 286 kts 220°
2026-05-08 06:55 25.02577 47.11110 8578 ft 287 kts 231°
2026-05-08 06:55 25.01363 47.09327 8202 ft 290 kts 233°
2026-05-08 06:55 25.00179 47.07542 7800 ft 294 kts 233°
2026-05-08 06:55 24.98969 47.05747 7385 ft 298 kts 232°
2026-05-08 06:56 24.97715 47.03922 6957 ft 302 kts 232°
2026-05-08 06:56 24.96755 47.02539 6630 ft 305 kts 232°
2026-05-08 06:56 24.95451 47.00675 6233 ft 307 kts 232°
2026-05-08 06:56 24.94141 46.98811 5895 ft 307 kts 232°
2026-05-08 06:57 24.92850 46.96977 5514 ft 308 kts 232°
2026-05-08 06:57 24.91526 46.95100 5091 ft 311 kts 232°
2026-05-08 06:57 24.90195 46.93214 4658 ft 314 kts 232°
2026-05-08 06:57 24.88869 46.91337 4467 ft 307 kts 232°
2026-05-08 06:58 24.87591 46.89528 4408 ft 287 kts 232°
2026-05-08 06:58 24.86424 46.87876 4405 ft 265 kts 232°
2026-05-08 06:58 24.85306 46.86295 4400 ft 254 kts 232°
2026-05-08 06:58 24.84243 46.84792 4366 ft 243 kts 232°
2026-05-08 06:59 24.83237 46.83362 4325 ft 232 kts 237°
2026-05-08 06:59 24.82704 46.81754 4212 ft 225 kts 269°
2026-05-08 06:59 24.83050 46.80109 4001 ft 220 kts 303°
2026-05-08 06:59 24.84026 46.78899 3992 ft 206 kts 323°
2026-05-08 07:00 24.85171 46.78051 3987 ft 192 kts 331°
2026-05-08 07:00 24.86311 46.77359 3953 ft 181 kts 333°
2026-05-08 07:00 24.87399 46.76706 3966 ft 181 kts 332°
2026-05-08 07:00 24.88487 46.76030 3850 ft 176 kts 331°
2026-05-08 07:01 24.89527 46.75369 3586 ft 171 kts 331°
2026-05-08 07:01 24.90563 46.74695 3009 ft 183 kts 329°
2026-05-08 07:01 24.91672 46.73943 2424 ft 190 kts 330°
2026-05-08 07:01 24.92880 46.73159 2084 ft 226 kts 331°
2026-05-08 07:02 24.94302 46.72277 2644 ft 240 kts 332°
2026-05-08 07:02 24.95740 46.71417 3438 ft 236 kts 333°
2026-05-08 07:02 24.97138 46.70609 4175 ft 226 kts 333°
2026-05-08 07:02 24.98550 46.69751 4383 ft 236 kts 335°
2026-05-08 07:03 25.00120 46.69345 4142 ft 235 kts
2026-05-08 07:03 25.01650 46.69823 4044 ft 232 kts 32°
2026-05-08 07:03 25.02805 46.71018 4012 ft 233 kts 58°
2026-05-08 07:03 25.03358 46.72707 4001 ft 236 kts 84°
2026-05-08 07:04 25.03164 46.74474 4005 ft 237 kts 107°
2026-05-08 07:04 25.02598 46.76205 4007 ft 238 kts 110°
2026-05-08 07:04 25.01993 46.77895 4007 ft 238 kts 110°
2026-05-08 07:04 25.01393 46.79585 4008 ft 238 kts 110°
2026-05-08 07:05 25.00659 46.81231 3998 ft 239 kts 132°
2026-05-08 07:05 24.99277 46.82164 4009 ft 240 kts 162°
2026-05-08 07:05 24.97646 46.82622 4015 ft 241 kts 167°
2026-05-08 07:05 24.96026 46.83028 4014 ft 240 kts 166°
2026-05-08 07:06 24.94411 46.83464 4014 ft 240 kts 165°
2026-05-08 07:06 24.92803 46.83931 4013 ft 240 kts 164°
2026-05-08 07:06 24.91200 46.84418 4013 ft 240 kts 164°
2026-05-08 07:06 24.89595 46.84919 4013 ft 240 kts 163°
2026-05-08 07:07 24.88007 46.85420 4013 ft 240 kts 163°
2026-05-08 07:07 24.86419 46.85923 4005 ft 230 kts 163°
2026-05-08 07:07 24.84925 46.86398 3998 ft 219 kts 163°
2026-05-08 07:07 24.83500 46.86850 3995 ft 208 kts 163°
2026-05-08 07:08 24.82129 46.87286 3999 ft 202 kts 163°
2026-05-08 07:08 24.80791 46.87711 4006 ft 201 kts 163°
2026-05-08 07:08 24.79435 46.87884 3994 ft 201 kts 197°
2026-05-08 07:08 24.78338 46.87035 4007 ft 189 kts 237°
2026-05-08 07:09 24.77759 46.85769 4026 ft 184 kts 248°
2026-05-08 07:09 24.77346 46.84448 4014 ft 182 kts 267°
2026-05-08 07:09 24.77644 46.83131 4006 ft 180 kts 308°
2026-05-08 07:09 24.78558 46.82212 4024 ft 179 kts 327°
2026-05-08 07:10 24.79622 46.81525 3930 ft 175 kts 332°
2026-05-08 07:10 24.80688 46.80903 3656 ft 177 kts 333°
2026-05-08 07:10 24.81753 46.80273 3477 ft 169 kts 332°
2026-05-08 07:10 24.82758 46.79657 3291 ft 162 kts 331°
2026-05-08 07:11 24.83715 46.79057 3048 ft 159 kts 330°
2026-05-08 07:11 24.84667 46.78453 2778 ft 158 kts 330°
2026-05-08 07:11 24.85618 46.77848 2508 ft 158 kts 330°
2026-05-08 07:11 24.86556 46.77250 2234 ft 154 kts 330°
2026-05-08 07:12 24.87474 46.76666 1923 ft 152 kts 330°
2026-05-08 07:12 24.88390 46.76085 1602 ft 152 kts 330°
2026-05-08 07:12 24.89290 46.75514 1375 ft 148 kts 330°
2026-05-08 07:12 24.90170 46.74958 1082 ft 148 kts 330°
2026-05-08 07:13 24.91062 46.74398 772 ft 149 kts 331°
2026-05-08 07:13 24.91964 46.73821 486 ft 148 kts 329°
2026-05-08 07:13 24.92844 46.73247 359 ft 148 kts 330°
2026-05-08 07:13 24.93734 46.72680 226 ft 148 kts 331°
2026-05-08 07:14 24.94625 46.72131 37 ft 142 kts 330°
2026-05-08 07:14 24.95391 46.71653 17 ft 93 kts 330°
2026-05-08 07:14 24.95776 46.71409 17 ft 44 kts 329°
2026-05-08 07:14 24.95970 46.71218 17 ft 27 kts 301°
2026-05-08 07:15 24.96010 46.71078 17 ft 10 kts 265°
2026-05-08 07:15 24.95978 46.71005 17 ft 9 kts 236°
2026-05-08 07:15 24.95950 46.70974 16 ft 6 kts 202°
2026-05-08 07:15 24.95903 46.70985 17 ft 8 kts 152°
2026-05-08 07:16 24.95850 46.71017 16 ft 9 kts 150°
2026-05-08 07:16 24.95790 46.71056 17 ft 10 kts 150°
2026-05-08 07:16 24.95722 46.71099 17 ft 11 kts 150°
2026-05-08 07:16 24.95649 46.71145 17 ft 12 kts 150°
2026-05-08 07:17 24.95571 46.71195 17 ft 13 kts 149°
2026-05-08 07:17 24.95489 46.71248 17 ft 14 kts 149°
2026-05-08 07:17 24.95406 46.71301 17 ft 11 kts 151°
2026-05-08 07:17 24.95334 46.71344 17 ft 12 kts 151°
2026-05-08 07:18 24.95257 46.71394 17 ft 13 kts 150°
2026-05-08 07:18 24.95175 46.71446 17 ft 13 kts 150°
2026-05-08 07:18 24.95091 46.71499 17 ft 14 kts 150°
2026-05-08 07:18 24.95002 46.71556 17 ft 14 kts 150°
2026-05-08 07:19 24.94912 46.71612 17 ft 15 kts 150°
2026-05-08 07:19 24.94846 46.71654 17 ft 6 kts 150°
2026-05-08 07:19 24.94808 46.71664 17 ft 4 kts 212°
2026-05-08 07:19 24.94786 46.71627 17 ft 7 kts 240°
2026-05-08 07:20 24.94758 46.71575 17 ft 8 kts 240°
2026-05-08 07:20 24.94726 46.71511 17 ft 10 kts 240°
2026-05-08 07:20 24.94688 46.71439 17 ft 11 kts 239°
2026-05-08 07:20 24.94646 46.71360 17 ft 12 kts 240°
2026-05-08 07:21 24.94610 46.71290 17 ft 8 kts 240°
2026-05-08 07:21 24.94574 46.71264 17 ft 6 kts 176°
2026-05-08 07:21 24.94530 46.71285 17 ft 7 kts 153°
2026-05-08 07:21 24.94488 46.71310 17 ft 6 kts 151°
2026-05-08 07:22 24.94441 46.71340 17 ft 8 kts 150°
2026-05-08 07:22 24.94410 46.71355 17 ft 3 kts 186°
2026-05-08 07:22 24.94386 46.71331 17 ft 6 kts 243°
2026-05-08 07:22 24.94367 46.71291 17 ft 2 kts 241°
2026-05-08 07:23 24.94357 46.71272 17 ft 3 kts 241°
2026-05-08 07:23 24.94354 46.71265 17 ft 0 kts 241°
2026-05-08 07:23 24.94353 46.71263 17 ft 1 kts 240°
2026-05-08 07:24 24.94352 46.71261 17 ft 0 kts 240°